| time (UTC) | temp C | wind direction | speed KPH | gust KPH | rain 1hr cm | rain 24hr cm | rain mn cm | humidity % | barometer mb |
| 20260906090027 | 31 | 18 | 8.0 | 16.1 | 0.00 | 0.00 | 0.00 | 31 | 1017.7 |
| 20260906085514 | 31 | 233 | 6.4 | 14.5 | 0.00 | 0.00 | 0.00 | 35 | 1017.7 |
| 20260906085013 | 31 | 326 | 4.8 | 20.9 | 0.00 | 0.00 | 0.00 | 33 | 1017.7 |
| 20260906084530 | 30 | 309 | 4.8 | 20.9 | 0.00 | 0.00 | 0.00 | 34 | 1017.7 |
| 20260906084017 | 30 | 352 | 6.4 | 16.1 | 0.00 | 0.00 | 0.00 | 40 | 1017.8 |
| 20260906083516 | 30 | 352 | 6.4 | 16.1 | 0.00 | 0.00 | 0.00 | 40 | 1017.8 |
| 20260906083031 | 29 | 341 | 8.0 | 16.1 | 0.00 | 0.00 | 0.00 | 39 | 1017.9 |
| 20260906082505 | 29 | 348 | 4.8 | 16.1 | 0.00 | 0.00 | 0.00 | 40 | 1017.9 |
| 20260906082009 | 29 | 21 | 8.0 | 16.1 | 0.00 | 0.00 | 0.00 | 41 | 1017.9 |
| 20260906081534 | 28 | 307 | 6.4 | 12.9 | 0.00 | 0.00 | 0.00 | 42 | 1018.0 |
| 20260906081010 | 28 | 342 | 6.4 | 14.5 | 0.00 | 0.00 | 0.00 | 44 | 1018.1 |
| 20260906080512 | 28 | 344 | 8.0 | 14.5 | 0.00 | 0.00 | 0.00 | 42 | 1018.0 |
| 20260906080026 | 28 | 336 | 6.4 | 12.9 | 0.00 | 0.00 | 0.00 | 41 | 1018.0 |
| 20260906075514 | 29 | 338 | 6.4 | 12.9 | 0.00 | 0.00 | 0.00 | 41 | 1018.1 |
| 20260906075014 | 28 | 296 | 4.8 | 14.5 | 0.00 | 0.00 | 0.00 | 40 | 1018.1 |
| 20260906074530 | 28 | 313 | 8.0 | 16.1 | 0.00 | 0.00 | 0.00 | 39 | 1018.2 |
| 20260906074016 | 28 | 321 | 4.8 | 16.1 | 0.00 | 0.00 | 0.00 | 38 | 1018.1 |
| 20260906073515 | 27 | 346 | 4.8 | 9.7 | 0.00 | 0.00 | 0.00 | 41 | 1018.0 |
| 20260906073047 | 27 | 347 | 3.2 | 12.9 | 0.00 | 0.00 | 0.00 | 45 | 1017.9 |
| 20260906072517 | 26 | 327 | 4.8 | 12.9 | 0.00 | 0.00 | 0.00 | 50 | 1017.9 |
| 20260906072015 | 26 | 343 | 4.8 | 12.9 | 0.00 | 0.00 | 0.00 | 52 | 1017.8 |
| 20260906071530 | 26 | 13 | 6.4 | 11.3 | 0.00 | 0.00 | 0.00 | 54 | 1017.9 |
| 20260906071008 | 26 | 331 | 6.4 | 12.9 | 0.00 | 0.00 | 0.00 | 54 | 1017.8 |
| 20260906070507 | 26 | 360 | 4.8 | 12.9 | 0.00 | 0.00 | 0.00 | 54 | 1017.8 |
| 20260906070035 | 26 | 325 | 4.8 | 9.7 | 0.00 | 0.00 | 0.00 | 55 | 1017.8 |
| 20260906065512 | 26 | 352 | 3.2 | 8.0 | 0.00 | 0.00 | 0.00 | 56 | 1017.7 |
| 20260906065014 | 25 | 360 | 1.6 | 8.0 | 0.00 | 0.00 | 0.00 | 59 | 1017.6 |
| 20260906064503 | 25 | 84 | 0.0 | 6.4 | 0.00 | 0.00 | 0.00 | 63 | 1017.5 |
| 20260906064003 | 25 | 83 | 1.6 | 8.0 | 0.00 | 0.00 | 0.00 | 63 | 1017.5 |
| 20260906063504 | 25 | 360 | 3.2 | 8.0 | 0.00 | 0.00 | 0.00 | 62 | 1017.5 |
| 20260906063010 | 25 | 360 | 4.8 | 8.0 | 0.00 | 0.00 | 0.00 | 60 | 1017.5 |
| 20260906062502 | 26 | 198 | 3.2 | 8.0 | 0.00 | 0.00 | 0.00 | 58 | 1017.4 |
| 20260906062007 | 26 | 202 | 1.6 | 6.4 | 0.00 | 0.00 | 0.00 | 58 | 1017.4 |
| 20260906061510 | 26 | 44 | 0.0 | 4.8 | 0.00 | 0.00 | 0.00 | 57 | 1017.3 |
| 20260906061003 | 26 | 78 | 0.0 | 6.4 | 0.00 | 0.00 | 0.00 | 57 | 1017.3 |
| 20260906060506 | 26 | 57 | 0.0 | 6.4 | 0.00 | 0.00 | 0.00 | 57 | 1017.3 |
| 20260906060009 | 26 | 205 | 3.2 | 6.4 | 0.00 | 0.00 | 0.00 | 57 | 1017.4 |
| 20260906055506 | 25 | 42 | 1.6 | 6.4 | 0.00 | 0.00 | 0.00 | 57 | 1017.4 |
| 20260906055003 | 25 | 84 | 0.0 | 6.4 | 0.00 | 0.00 | 0.00 | 58 | 1017.4 |
| 20260906054515 | 26 | 72 | 1.6 | 6.4 | 0.00 | 0.00 | 0.00 | 57 | 1017.4 |
| 20260906054003 | 26 | 46 | 0.0 | 4.8 | 0.00 | 0.00 | 0.00 | 58 | 1017.4 |
| 20260906053504 | 25 | 360 | 1.6 | 4.8 | 0.00 | 0.00 | 0.00 | 57 | 1017.4 |
| 20260906053004 | 25 | 58 | 0.0 | 0.0 | 0.00 | 0.00 | 0.00 | 58 | 1017.2 |
| 20260906052504 | 25 | 360 | 0.0 | 0.0 | 0.00 | 0.00 | 0.00 | 59 | 1017.3 |
| 20260906052004 | 25 | 360 | 0.0 | 0.0 | 0.00 | 0.00 | 0.00 | 60 | 1017.2 |
| 20260906051518 | 25 | 12 | 0.0 | 0.0 | 0.00 | 0.00 | 0.00 | 61 | 1017.1 |
| 20260906051005 | 25 | 360 | 0.0 | 0.0 | 0.00 | 0.00 | 0.00 | 61 | 1017.1 |
| 20260906050507 | 25 | 360 | 0.0 | 4.8 | 0.00 | 0.00 | 0.00 | 62 | 1017.0 |
| 20260906050013 | 24 | 360 | 0.0 | 4.8 | 0.00 | 0.00 | 0.00 | 62 | 1017.0 |
| 20260906045508 | 24 | 360 | 1.6 | 4.8 | 0.00 | 0.00 | 0.00 | 61 | 1017.1 |
| 20260906045008 | 23 | 360 | 1.6 | 3.2 | 0.00 | 0.00 | 0.00 | 57 | 1017.0 |
| 20260906044512 | 23 | 360 | 0.0 | 1.6 | 0.00 | 0.00 | 0.00 | 56 | 1016.9 |
| 20260906044009 | 23 | 360 | 0.0 | 1.6 | 0.00 | 0.00 | 0.00 | 53 | 1016.8 |
| 20260906043506 | 22 | 239 | 0.0 | 1.6 | 0.00 | 0.00 | 0.00 | 45 | 1016.7 |
| 20260906043018 | 22 | 238 | 0.0 | 3.2 | 0.00 | 0.00 | 0.00 | 44 | 1016.7 |
| 20260906042503 | 22 | 238 | 0.0 | 6.4 | 0.00 | 0.00 | 0.00 | 44 | 1016.7 |
| 20260906042004 | 22 | 274 | 0.0 | 6.4 | 0.00 | 0.00 | 0.00 | 44 | 1016.5 |
| 20260906041508 | 22 | 360 | 1.6 | 4.8 | 0.00 | 0.00 | 0.00 | 44 | 1016.5 |
| 20260906041003 | 22 | 360 | 1.6 | 4.8 | 0.00 | 0.00 | 0.00 | 44 | 1016.6 |
| 20260906040505 | 22 | 360 | 0.0 | 4.8 | 0.00 | 0.00 | 0.00 | 44 | 1016.6 |
| 20260906040014 | 22 | 360 | 1.6 | 6.4 | 0.00 | 0.00 | 0.00 | 44 | 1016.6 |
| 20260906035508 | 22 | 360 | 1.6 | 6.4 | 0.00 | 0.00 | 0.00 | 44 | 1016.5 |
| 20260906035009 | 22 | 360 | 1.6 | 4.8 | 0.00 | 0.00 | 0.00 | 45 | 1016.5 |
| 20260906034524 | 22 | 360 | 0.0 | 3.2 | 0.00 | 0.00 | 0.00 | 45 | 1016.5 |
| 20260906034008 | 22 | 360 | 0.0 | 3.2 | 0.00 | 0.00 | 0.00 | 44 | 1016.5 |
| 20260906033506 | 22 | 360 | 0.0 | 3.2 | 0.00 | 0.00 | 0.00 | 44 | 1016.5 |
| 20260906033015 | 23 | 360 | 0.0 | 3.2 | 0.00 | 0.00 | 0.00 | 45 | 1016.5 |
| 20260906032508 | 23 | 360 | 0.0 | 1.6 | 0.00 | 0.00 | 0.00 | 45 | 1016.5 |
| 20260906032008 | 23 | 360 | 0.0 | 0.0 | 0.00 | 0.00 | 0.00 | 45 | 1016.5 |
| 20260906031516 | 23 | 360 | 0.0 | 0.0 | 0.00 | 0.00 | 0.00 | 45 | 1016.4 |
| 20260906031005 | 23 | 360 | 0.0 | 1.6 | 0.00 | 0.00 | 0.00 | 46 | 1016.4 |
| 20260906030504 | 23 | 360 | 0.0 | 3.2 | 0.00 | 0.00 | 0.00 | 46 | 1016.3 |
| 20260906030011 | 23 | 360 | 0.0 | 3.2 | 0.00 | 0.00 | 0.00 | 44 | 1016.4 |
| 20260906025505 | 23 | 360 | 0.0 | 3.2 | 0.00 | 0.00 | 0.00 | 44 | 1016.4 |
| 20260906025005 | 23 | 360 | 0.0 | 3.2 | 0.00 | 0.00 | 0.00 | 44 | 1016.3 |
| 20260906024518 | 23 | 360 | 0.0 | 1.6 | 0.00 | 0.00 | 0.00 | 44 | 1016.3 |
| 20260906024006 | 23 | 360 | 0.0 | 1.6 | 0.00 | 0.00 | 0.00 | 44 | 1016.3 |
| 20260906023510 | 23 | 360 | 0.0 | 1.6 | 0.00 | 0.00 | 0.00 | 44 | 1016.3 |
| 20260906023016 | 23 | 360 | 0.0 | 1.6 | 0.00 | 0.00 | 0.00 | 43 | 1016.3 |
| 20260906022510 | 23 | 360 | 0.0 | 1.6 | 0.00 | 0.00 | 0.00 | 43 | 1016.3 |
| 20260906022009 | 23 | 360 | 0.0 | 1.6 | 0.00 | 0.00 | 0.00 | 43 | 1016.3 |
| 20260906021518 | 24 | 360 | 0.0 | 1.6 | 0.00 | 0.00 | 0.00 | 43 | 1016.2 |
| 20260906021010 | 24 | 360 | 0.0 | 1.6 | 0.00 | 0.00 | 0.00 | 42 | 1016.2 |
| 20260906020510 | 24 | 360 | 0.0 | 1.6 | 0.00 | 0.00 | 0.00 | 42 | 1016.2 |
| 20260906020021 | 24 | 360 | 0.0 | 1.6 | 0.00 | 0.00 | 0.00 | 42 | 1016.1 |
| 20260906015505 | 24 | 260 | 0.0 | 3.2 | 0.00 | 0.00 | 0.00 | 42 | 1016.2 |
| 20260906015007 | 24 | 259 | 0.0 | 3.2 | 0.00 | 0.00 | 0.00 | 41 | 1016.2 |
| 20260906014517 | 24 | 259 | 0.0 | 3.2 | 0.00 | 0.00 | 0.00 | 41 | 1016.2 |
| 20260906014005 | 24 | 259 | 0.0 | 3.2 | 0.00 | 0.00 | 0.00 | 41 | 1016.2 |
| 20260906013506 | 24 | 259 | 1.6 | 3.2 | 0.00 | 0.00 | 0.00 | 41 | 1016.2 |
| 20260906013021 | 24 | 259 | 0.0 | 3.2 | 0.00 | 0.00 | 0.00 | 42 | 1016.1 |
| 20260906012514 | 24 | 259 | 0.0 | 6.4 | 0.00 | 0.00 | 0.00 | 42 | 1016.1 |
| 20260906012011 | 24 | 267 | 0.0 | 6.4 | 0.00 | 0.00 | 0.00 | 42 | 1016.2 |
| 20260906011524 | 24 | 262 | 0.0 | 3.2 | 0.00 | 0.00 | 0.00 | 42 | 1016.1 |
| 20260906011015 | 24 | 260 | 0.0 | 4.8 | 0.00 | 0.00 | 0.00 | 42 | 1016.1 |
| 20260906010509 | 24 | 260 | 0.0 | 4.8 | 0.00 | 0.00 | 0.00 | 42 | 1016.1 |
| 20260906010023 | 24 | 290 | 0.0 | 3.2 | 0.00 | 0.00 | 0.00 | 42 | 1016.2 |
| 20260906005510 | 24 | 290 | 0.0 | 6.4 | 0.00 | 0.00 | 0.00 | 42 | 1016.0 |
| 20260906005012 | 24 | 290 | 0.0 | 6.4 | 0.00 | 0.00 | 0.00 | 42 | 1016.1 |
| 20260906004510 | 25 | 271 | 1.6 | 6.4 | 0.00 | 0.00 | 0.00 | 42 | 1016.1 |
| 20260906004009 | 25 | 265 | 1.6 | 4.8 | 0.00 | 0.00 | 0.00 | 42 | 1016.1 |
| 20260906003506 | 25 | 289 | 0.0 | 4.8 | 0.00 | 0.00 | 0.00 | 42 | 1016.1 |
| 20260906003016 | 25 | 289 | 0.0 | 1.6 | 0.00 | 0.00 | 0.00 | 42 | 1016.1 |
| 20260906002509 | 25 | 289 | 0.0 | 4.8 | 0.00 | 0.00 | 0.00 | 42 | 1016.2 |
| 20260906002009 | 25 | 289 | 0.0 | 4.8 | 0.00 | 0.00 | 0.00 | 42 | 1016.2 |
| 20260906001520 | 25 | 286 | 0.0 | 8.0 | 0.00 | 0.00 | 0.00 | 42 | 1016.2 |
| 20260906001013 | 25 | 285 | 1.6 | 9.7 | 0.00 | 0.00 | 0.00 | 43 | 1016.2 |
| 20260906000512 | 25 | 287 | 3.2 | 9.7 | 0.00 | 0.00 | 0.00 | 43 | 1016.2 |
| 20260906000025 | 25 | 285 | 0.0 | 4.8 | 0.00 | 0.00 | 0.00 | 43 | 1016.3 |
| 20260905235512 | 25 | 294 | 1.6 | 6.4 | 0.00 | 0.00 | 0.00 | 43 | 1016.3 |
| 20260905235011 | 25 | 360 | 0.0 | 6.4 | 0.00 | 0.00 | 0.00 | 43 | 1016.3 |
| 20260905234526 | 25 | 360 | 1.6 | 6.4 | 0.00 | 0.00 | 0.00 | 43 | 1016.2 |
| 20260905234012 | 25 | 360 | 1.6 | 9.7 | 0.00 | 0.00 | 0.00 | 43 | 1016.0 |
| 20260905233514 | 25 | 360 | 0.0 | 9.7 | 0.00 | 0.00 | 0.00 | 43 | 1016.1 |
| 20260905233014 | 25 | 360 | 1.6 | 8.0 | 0.00 | 0.00 | 0.00 | 43 | 1016.1 |
| 20260905232509 | 25 | 360 | 0.0 | 1.6 | 0.00 | 0.00 | 0.00 | 43 | 1016.2 |
| 20260905232009 | 25 | 360 | 0.0 | 3.2 | 0.00 | 0.00 | 0.00 | 43 | 1016.2 |
| 20260905231520 | 25 | 360 | 0.0 | 3.2 | 0.00 | 0.00 | 0.00 | 42 | 1016.2 |
| 20260905231010 | 25 | 360 | 0.0 | 4.8 | 0.00 | 0.00 | 0.00 | 42 | 1016.2 |
| 20260905230510 | 25 | 360 | 1.6 | 4.8 | 0.00 | 0.00 | 0.00 | 42 | 1016.2 |
| 20260905230028 | 25 | 360 | 0.0 | 1.6 | 0.00 | 0.00 | 0.00 | 42 | 1016.3 |
| 20260905225513 | 25 | 256 | 0.0 | 3.2 | 0.00 | 0.00 | 0.00 | 42 | 1016.3 |
| 20260905225014 | 26 | 360 | 0.0 | 6.4 | 0.00 | 0.00 | 0.00 | 41 | 1016.4 |
| 20260905224535 | 26 | 360 | 0.0 | 6.4 | 0.00 | 0.00 | 0.00 | 40 | 1016.4 |
| 20260905224013 | 26 | 360 | 0.0 | 6.4 | 0.00 | 0.00 | 0.00 | 40 | 1016.4 |
| 20260905223517 | 26 | 360 | 1.6 | 6.4 | 0.00 | 0.00 | 0.00 | 40 | 1016.3 |
| 20260905223033 | 26 | 360 | 1.6 | 8.0 | 0.00 | 0.00 | 0.00 | 39 | 1016.4 |
| 20260905222518 | 26 | 360 | 1.6 | 8.0 | 0.00 | 0.00 | 0.00 | 38 | 1016.3 |
| 20260905222016 | 26 | 360 | 3.2 | 9.7 | 0.00 | 0.00 | 0.00 | 38 | 1016.3 |
| 20260905221518 | 26 | 360 | 4.8 | 12.9 | 0.00 | 0.00 | 0.00 | 37 | 1016.4 |
| 20260905221008 | 26 | 360 | 6.4 | 14.5 | 0.00 | 0.00 | 0.00 | 37 | 1016.4 |
| 20260905220513 | 26 | 360 | 6.4 | 14.5 | 0.00 | 0.00 | 0.00 | 36 | 1016.4 |
| 20260905220022 | 26 | 360 | 6.4 | 14.5 | 0.00 | 0.00 | 0.00 | 35 | 1016.4 |
| 20260905215514 | 26 | 360 | 4.8 | 14.5 | 0.00 | 0.00 | 0.00 | 35 | 1016.3 |
| 20260905215015 | 26 | 360 | 6.4 | 14.5 | 0.00 | 0.00 | 0.00 | 35 | 1016.3 |
| 20260905214525 | 26 | 360 | 4.8 | 14.5 | 0.00 | 0.00 | 0.00 | 35 | 1016.3 |
| 20260905214004 | 26 | 360 | 6.4 | 14.5 | 0.00 | 0.00 | 0.00 | 35 | 1016.3 |
| 20260905213504 | 26 | 360 | 6.4 | 14.5 | 0.00 | 0.00 | 0.00 | 35 | 1016.3 |
| 20260905213007 | 26 | 256 | 6.4 | 14.5 | 0.00 | 0.00 | 0.00 | 35 | 1016.4 |
| 20260905212505 | 26 | 273 | 6.4 | 14.5 | 0.00 | 0.00 | 0.00 | 35 | 1016.5 |
| 20260905212006 | 26 | 276 | 4.8 | 14.5 | 0.00 | 0.00 | 0.00 | 35 | 1016.5 |
| 20260905211515 | 27 | 292 | 4.8 | 12.9 | 0.00 | 0.00 | 0.00 | 35 | 1016.5 |
| 20260905211008 | 27 | 296 | 0.0 | 8.0 | 0.00 | 0.00 | 0.00 | 35 | 1016.5 |
| 20260905210508 | 27 | 360 | 1.6 | 8.0 | 0.00 | 0.00 | 0.00 | 35 | 1016.5 |
| 20260905210024 | 27 | 360 | 3.2 | 6.4 | 0.00 | 0.00 | 0.00 | 35 | 1016.5 |
| 20260905205509 | 27 | 360 | 1.6 | 4.8 | 0.00 | 0.00 | 0.00 | 35 | 1016.5 |
| 20260905205013 | 27 | 360 | 0.0 | 4.8 | 0.00 | 0.00 | 0.00 | 36 | 1016.5 |
| 20260905204504 | 27 | 360 | 0.0 | 6.4 | 0.00 | 0.00 | 0.00 | 36 | 1016.5 |
| 20260905204004 | 27 | 360 | 1.6 | 9.7 | 0.00 | 0.00 | 0.00 | 36 | 1016.5 |
| 20260905203504 | 27 | 360 | 3.2 | 9.7 | 0.00 | 0.00 | 0.00 | 36 | 1016.6 |
| 20260905203008 | 27 | 360 | 4.8 | 9.7 | 0.00 | 0.00 | 0.00 | 36 | 1016.5 |
| 20260905202503 | 27 | 360 | 3.2 | 12.9 | 0.00 | 0.00 | 0.00 | 36 | 1016.6 |
| 20260905202003 | 27 | 360 | 1.6 | 12.9 | 0.00 | 0.00 | 0.00 | 36 | 1016.4 |
| 20260905201515 | 27 | 360 | 3.2 | 12.9 | 0.00 | 0.00 | 0.00 | 36 | 1016.5 |
| 20260905201008 | 27 | 360 | 4.8 | 16.1 | 0.00 | 0.00 | 0.00 | 36 | 1016.4 |
| 20260905200507 | 27 | 360 | 4.8 | 20.9 | 0.00 | 0.00 | 0.00 | 36 | 1016.4 |
| 20260905200018 | 27 | 360 | 6.4 | 20.9 | 0.00 | 0.00 | 0.00 | 36 | 1016.4 |
| 20260905195511 | 27 | 360 | 6.4 | 14.5 | 0.00 | 0.00 | 0.00 | 36 | 1016.4 |
| 20260905195013 | 27 | 360 | 6.4 | 14.5 | 0.00 | 0.00 | 0.00 | 36 | 1016.4 |
| 20260905194526 | 27 | 360 | 4.8 | 14.5 | 0.00 | 0.00 | 0.00 | 36 | 1016.5 |
| 20260905194011 | 27 | 360 | 3.2 | 14.5 | 0.00 | 0.00 | 0.00 | 36 | 1016.5 |
| 20260905193513 | 27 | 360 | 4.8 | 14.5 | 0.00 | 0.00 | 0.00 | 35 | 1016.4 |
| 20260905193005 | 28 | 360 | 6.4 | 14.5 | 0.00 | 0.00 | 0.00 | 35 | 1016.4 |
| 20260905192505 | 28 | 360 | 3.2 | 12.9 | 0.00 | 0.00 | 0.00 | 35 | 1016.4 |
| 20260905192003 | 28 | 360 | 6.4 | 12.9 | 0.00 | 0.00 | 0.00 | 35 | 1016.4 |
| 20260905191513 | 28 | 360 | 4.8 | 12.9 | 0.00 | 0.00 | 0.00 | 35 | 1016.4 |
| 20260905191004 | 28 | 360 | 4.8 | 12.9 | 0.00 | 0.00 | 0.00 | 35 | 1016.4 |
| 20260905190504 | 28 | 360 | 4.8 | 16.1 | 0.00 | 0.00 | 0.00 | 35 | 1016.4 |
| 20260905190038 | 28 | 360 | 4.8 | 16.1 | 0.00 | 0.00 | 0.00 | 35 | 1016.3 |
| 20260905185507 | 28 | 360 | 4.8 | 16.1 | 0.00 | 0.00 | 0.00 | 35 | 1016.3 |
| 20260905185009 | 28 | 360 | 6.4 | 19.3 | 0.00 | 0.00 | 0.00 | 35 | 1016.3 |
| 20260905184523 | 28 | 360 | 8.0 | 19.3 | 0.00 | 0.00 | 0.00 | 35 | 1016.3 |
| 20260905184013 | 28 | 360 | 8.0 | 24.1 | 0.00 | 0.00 | 0.00 | 35 | 1016.2 |
| 20260905183510 | 28 | 360 | 9.7 | 24.1 | 0.00 | 0.00 | 0.00 | 35 | 1016.1 |
| 20260905183026 | 28 | 360 | 8.0 | 22.5 | 0.00 | 0.00 | 0.00 | 34 | 1016.2 |
| 20260905182512 | 28 | 360 | 9.7 | 22.5 | 0.00 | 0.00 | 0.00 | 34 | 1016.1 |
| 20260905182014 | 28 | 360 | 9.7 | 22.5 | 0.00 | 0.00 | 0.00 | 34 | 1016.1 |
| 20260905181512 | 28 | 360 | 6.4 | 22.5 | 0.00 | 0.00 | 0.00 | 33 | 1016.0 |
| 20260905181004 | 28 | 360 | 9.7 | 22.5 | 0.00 | 0.00 | 0.00 | 33 | 1016.0 |
| 20260905180506 | 28 | 360 | 11.3 | 22.5 | 0.00 | 0.00 | 0.00 | 33 | 1016.0 |
| 20260905180019 | 28 | 360 | 9.7 | 20.9 | 0.00 | 0.00 | 0.00 | 33 | 1016.0 |
| 20260905175510 | 28 | 360 | 4.8 | 20.9 | 0.00 | 0.00 | 0.00 | 33 | 1016.0 |
| 20260905175010 | 29 | 360 | 9.7 | 20.9 | 0.00 | 0.00 | 0.00 | 33 | 1015.9 |
| 20260905174520 | 29 | 360 | 6.4 | 22.5 | 0.00 | 0.00 | 0.00 | 34 | 1015.9 |
| 20260905174008 | 29 | 360 | 12.9 | 22.5 | 0.00 | 0.00 | 0.00 | 34 | 1015.8 |
| 20260905173511 | 29 | 360 | 11.3 | 20.9 | 0.00 | 0.00 | 0.00 | 34 | 1015.8 |
| 20260905173023 | 29 | 360 | 8.0 | 20.9 | 0.00 | 0.00 | 0.00 | 34 | 1015.7 |
| 20260905172511 | 29 | 360 | 9.7 | 19.3 | 0.00 | 0.00 | 0.00 | 34 | 1015.7 |
| 20260905172012 | 29 | 360 | 8.0 | 19.3 | 0.00 | 0.00 | 0.00 | 34 | 1015.6 |
| 20260905171533 | 29 | 360 | 6.4 | 14.5 | 0.00 | 0.00 | 0.00 | 33 | 1015.5 |
| 20260905171017 | 30 | 360 | 6.4 | 16.1 | 0.00 | 0.00 | 0.00 | 34 | 1015.5 |
| 20260905170503 | 30 | 360 | 8.0 | 17.7 | 0.00 | 0.00 | 0.00 | 34 | 1015.4 |
| 20260905170007 | 30 | 360 | 6.4 | 17.7 | 0.00 | 0.00 | 0.00 | 34 | 1015.4 |
| 20260905165503 | 30 | 360 | 4.8 | 12.9 | 0.00 | 0.00 | 0.00 | 35 | 1015.3 |
| 20260905165008 | 30 | 360 | 4.8 | 19.3 | 0.00 | 0.00 | 0.00 | 35 | 1015.2 |
| 20260905164527 | 30 | 360 | 8.0 | 19.3 | 0.00 | 0.00 | 0.00 | 35 | 1015.2 |
| 20260905164009 | 30 | 360 | 6.4 | 14.5 | 0.00 | 0.00 | 0.00 | 35 | 1015.1 |
| 20260905163512 | 30 | 360 | 6.4 | 14.5 | 0.00 | 0.00 | 0.00 | 35 | 1015.0 |
| 20260905163024 | 30 | 360 | 4.8 | 12.9 | 0.00 | 0.00 | 0.00 | 36 | 1015.0 |
| 20260905162513 | 30 | 360 | 4.8 | 12.9 | 0.00 | 0.00 | 0.00 | 36 | 1015.0 |
| 20260905162012 | 31 | 360 | 6.4 | 16.1 | 0.00 | 0.00 | 0.00 | 36 | 1015.0 |
| 20260905161526 | 31 | 360 | 4.8 | 16.1 | 0.00 | 0.00 | 0.00 | 36 | 1014.9 |
| 20260905161014 | 31 | 360 | 4.8 | 12.9 | 0.00 | 0.00 | 0.00 | 36 | 1014.9 |
| 20260905160514 | 31 | 325 | 4.8 | 12.9 | 0.00 | 0.00 | 0.00 | 36 | 1015.0 |
| 20260905160030 | 31 | 252 | 4.8 | 11.3 | 0.00 | 0.00 | 0.00 | 37 | 1015.0 |
| 20260905155517 | 31 | 264 | 6.4 | 17.7 | 0.00 | 0.00 | 0.00 | 37 | 1014.9 |
| 20260905155004 | 31 | 297 | 8.0 | 19.3 | 0.00 | 0.00 | 0.00 | 37 | 1014.9 |
| 20260905154512 | 31 | 259 | 8.0 | 19.3 | 0.00 | 0.00 | 0.00 | 37 | 1014.9 |
| 20260905154004 | 31 | 269 | 8.0 | 19.3 | 0.00 | 0.00 | 0.00 | 37 | 1014.9 |
| 20260905153509 | 31 | 286 | 8.0 | 17.7 | 0.00 | 0.00 | 0.00 | 38 | 1014.9 |
| 20260905153016 | 30 | 315 | 4.8 | 12.9 | 0.00 | 0.00 | 0.00 | 39 | 1014.8 |
| 20260905152511 | 30 | 326 | 4.8 | 12.9 | 0.00 | 0.00 | 0.00 | 43 | 1014.9 |
| 20260905152012 | 31 | 332 | 4.8 | 12.9 | 0.00 | 0.00 | 0.00 | 46 | 1014.9 |
| 20260905151527 | 31 | 345 | 6.4 | 12.9 | 0.00 | 0.00 | 0.00 | 45 | 1014.9 |
| 20260905151013 | 32 | 329 | 3.2 | 12.9 | 0.00 | 0.00 | 0.00 | 43 | 1014.9 |
| 20260905150515 | 32 | 351 | 6.4 | 12.9 | 0.00 | 0.00 | 0.00 | 41 | 1014.9 |
| 20260905150027 | 32 | 321 | 3.2 | 12.9 | 0.00 | 0.00 | 0.00 | 36 | 1014.9 |
| 20260905145513 | 32 | 302 | 4.8 | 12.9 | 0.00 | 0.00 | 0.00 | 35 | 1014.8 |
| 20260905145015 | 32 | 334 | 4.8 | 14.5 | 0.00 | 0.00 | 0.00 | 35 | 1014.9 |
| 20260905144533 | 32 | 29 | 4.8 | 14.5 | 0.00 | 0.00 | 0.00 | 34 | 1014.9 |
| 20260905144016 | 32 | 349 | 4.8 | 14.5 | 0.00 | 0.00 | 0.00 | 33 | 1014.9 |
| 20260905143504 | 32 | 347 | 6.4 | 12.9 | 0.00 | 0.00 | 0.00 | 33 | 1015.0 |
| 20260905143021 | 32 | 343 | 4.8 | 17.7 | 0.00 | 0.00 | 0.00 | 32 | 1015.0 |
| 20260905142510 | 33 | 288 | 6.4 | 17.7 | 0.00 | 0.00 | 0.00 | 31 | 1015.0 |
| 20260905142010 | 33 | 347 | 6.4 | 16.1 | 0.00 | 0.00 | 0.00 | 28 | 1015.1 |
| 20260905141524 | 33 | 346 | 6.4 | 14.5 | 0.00 | 0.00 | 0.00 | 25 | 1015.1 |
| 20260905141012 | 33 | 313 | 3.2 | 14.5 | 0.00 | 0.00 | 0.00 | 24 | 1015.0 |
| 20260905140511 | 33 | 269 | 3.2 | 20.9 | 0.00 | 0.00 | 0.00 | 24 | 1015.0 |
| 20260905140028 | 33 | 286 | 8.0 | 20.9 | 0.00 | 0.00 | 0.00 | 23 | 1015.0 |
| 20260905135513 | 33 | 319 | 9.7 | 17.7 | 0.00 | 0.00 | 0.00 | 23 | 1015.1 |
| 20260905135015 | 33 | 310 | 9.7 | 17.7 | 0.00 | 0.00 | 0.00 | 24 | 1015.0 |
| 20260905134530 | 33 | 352 | 6.4 | 19.3 | 0.00 | 0.00 | 0.00 | 24 | 1015.1 |
| 20260905134016 | 33 | 352 | 6.4 | 19.3 | 0.00 | 0.00 | 0.00 | 25 | 1015.1 |
| 20260905133515 | 33 | 298 | 12.9 | 19.3 | 0.00 | 0.00 | 0.00 | 24 | 1015.1 |
| 20260905133033 | 33 | 331 | 4.8 | 19.3 | 0.00 | 0.00 | 0.00 | 26 | 1015.1 |
| 20260905132518 | 33 | 313 | 9.7 | 19.3 | 0.00 | 0.00 | 0.00 | 25 | 1015.1 |
| 20260905132008 | 33 | 311 | 9.7 | 19.3 | 0.00 | 0.00 | 0.00 | 26 | 1015.1 |
| 20260905131530 | 33 | 273 | 8.0 | 20.9 | 0.00 | 0.00 | 0.00 | 26 | 1015.2 |
| 20260905131011 | 33 | 329 | 9.7 | 22.5 | 0.00 | 0.00 | 0.00 | 26 | 1015.3 |
| 20260905130513 | 32 | 285 | 8.0 | 22.5 | 0.00 | 0.00 | 0.00 | 26 | 1015.2 |
| 20260905130035 | 33 | 299 | 8.0 | 24.1 | 0.00 | 0.00 | 0.00 | 27 | 1015.2 |
| 20260905125511 | 32 | 286 | 6.4 | 24.1 | 0.00 | 0.00 | 0.00 | 27 | 1015.3 |
| 20260905125016 | 32 | 347 | 9.7 | 20.9 | 0.00 | 0.00 | 0.00 | 27 | 1015.3 |
| 20260905124530 | 32 | 333 | 11.3 | 19.3 | 0.00 | 0.00 | 0.00 | 27 | 1015.3 |
| 20260905124005 | 33 | 292 | 9.7 | 17.7 | 0.00 | 0.00 | 0.00 | 27 | 1015.3 |
| 20260905123504 | 32 | 55 | 4.8 | 20.9 | 0.00 | 0.00 | 0.00 | 27 | 1015.3 |
| 20260905123010 | 32 | 331 | 9.7 | 22.5 | 0.00 | 0.00 | 0.00 | 27 | 1015.3 |
| 20260905122506 | 32 | 291 | 8.0 | 24.1 | 0.00 | 0.00 | 0.00 | 28 | 1015.4 |
| 20260905122010 | 32 | 319 | 8.0 | 24.1 | 0.00 | 0.00 | 0.00 | 28 | 1015.4 |
| 20260905121516 | 32 | 298 | 9.7 | 20.9 | 0.00 | 0.00 | 0.00 | 28 | 1015.4 |
| 20260905121010 | 32 | 307 | 11.3 | 22.5 | 0.00 | 0.00 | 0.00 | 28 | 1015.5 |
| 20260905120508 | 32 | 275 | 6.4 | 22.5 | 0.00 | 0.00 | 0.00 | 28 | 1015.5 |
| 20260905120023 | 32 | 294 | 8.0 | 20.9 | 0.00 | 0.00 | 0.00 | 28 | 1015.5 |
| 20260905115514 | 32 | 310 | 8.0 | 17.7 | 0.00 | 0.00 | 0.00 | 30 | 1015.6 |
| 20260905115004 | 32 | 336 | 8.0 | 17.7 | 0.00 | 0.00 | 0.00 | 31 | 1015.6 |
| 20260905114503 | 32 | 111 | 8.0 | 17.7 | 0.00 | 0.00 | 0.00 | 32 | 1015.7 |
| 20260905114005 | 32 | 325 | 8.0 | 20.9 | 0.00 | 0.00 | 0.00 | 33 | 1015.8 |
| 20260905113504 | 32 | 315 | 9.7 | 20.9 | 0.00 | 0.00 | 0.00 | 34 | 1015.8 |
| 20260905113012 | 32 | 308 | 11.3 | 20.9 | 0.00 | 0.00 | 0.00 | 34 | 1015.9 |
| 20260905112505 | 31 | 320 | 8.0 | 20.9 | 0.00 | 0.00 | 0.00 | 35 | 1015.9 |
| 20260905112010 | 31 | 299 | 8.0 | 20.9 | 0.00 | 0.00 | 0.00 | 35 | 1015.9 |
| 20260905111512 | 31 | 115 | 8.0 | 22.5 | 0.00 | 0.00 | 0.00 | 35 | 1016.0 |
| 20260905111009 | 31 | 109 | 11.3 | 22.5 | 0.00 | 0.00 | 0.00 | 35 | 1016.1 |
| 20260905110509 | 31 | 339 | 9.7 | 24.1 | 0.00 | 0.00 | 0.00 | 35 | 1016.1 |
| 20260905110018 | 31 | 320 | 9.7 | 24.1 | 0.00 | 0.00 | 0.00 | 36 | 1016.2 |
| 20260905105512 | 31 | 329 | 8.0 | 19.3 | 0.00 | 0.00 | 0.00 | 37 | 1016.2 |
| 20260905105009 | 30 | 336 | 9.7 | 19.3 | 0.00 | 0.00 | 0.00 | 38 | 1016.2 |
| 20260905104523 | 30 | 322 | 9.7 | 22.5 | 0.00 | 0.00 | 0.00 | 38 | 1016.2 |
| 20260905104014 | 30 | 317 | 11.3 | 22.5 | 0.00 | 0.00 | 0.00 | 39 | 1016.3 |
| 20260905103504 | 30 | 341 | 9.7 | 22.5 | 0.00 | 0.00 | 0.00 | 40 | 1016.3 |
| 20260905103010 | 30 | 360 | 6.4 | 22.5 | 0.00 | 0.00 | 0.00 | 41 | 1016.4 |
| 20260905102503 | 30 | 325 | 9.7 | 22.5 | 0.00 | 0.00 | 0.00 | 41 | 1016.4 |
| 20260905102003 | 30 | 318 | 9.7 | 22.5 | 0.00 | 0.00 | 0.00 | 42 | 1016.5 |
| 20260905101509 | 30 | 314 | 11.3 | 20.9 | 0.00 | 0.00 | 0.00 | 43 | 1016.5 |
| 20260905101004 | 30 | 335 | 9.7 | 24.1 | 0.00 | 0.00 | 0.00 | 44 | 1016.5 |
| 20260905100511 | 29 | 339 | 8.0 | 24.1 | 0.00 | 0.00 | 0.00 | 44 | 1016.5 |
| 20260905100021 | 29 | 309 | 11.3 | 24.1 | 0.00 | 0.00 | 0.00 | 44 | 1016.5 |
| 20260905095511 | 30 | 360 | 9.7 | 25.7 | 0.00 | 0.00 | 0.00 | 44 | 1016.6 |
| 20260905095009 | 30 | 322 | 11.3 | 25.7 | 0.00 | 0.00 | 0.00 | 44 | 1016.6 |
| 20260905094524 | 30 | 318 | 11.3 | 20.9 | 0.00 | 0.00 | 0.00 | 44 | 1016.6 |
| 20260905094014 | 30 | 333 | 9.7 | 20.9 | 0.00 | 0.00 | 0.00 | 43 | 1016.6 |
| 20260905093514 | 30 | 301 | 8.0 | 20.9 | 0.00 | 0.00 | 0.00 | 43 | 1016.5 |
| 20260905093031 | 29 | 159 | 6.4 | 20.9 | 0.00 | 0.00 | 0.00 | 44 | 1016.6 |
| 20260905092514 | 29 | 317 | 9.7 | 25.7 | 0.00 | 0.00 | 0.00 | 44 | 1016.7 |
| 20260905092005 | 29 | 331 | 11.3 | 25.7 | 0.00 | 0.00 | 0.00 | 44 | 1016.6 |
| 20260905091507 | 29 | 311 | 9.7 | 22.5 | 0.00 | 0.00 | 0.00 | 43 | 1016.6 |
| 20260905091003 | 29 | 345 | 11.3 | 22.5 | 0.00 | 0.00 | 0.00 | 43 | 1016.6 |
| 20260905090503 | 29 | 323 | 11.3 | 20.9 | 0.00 | 0.00 | 0.00 | 43 | 1016.6 |